Regional Weather Roundup
Issued by NWS Albany, NY

Home | Current Version | Previous Version | Text Only | Print | Product List | Glossary On
Versions: 1 2 3 4 5 6 7 8 9 10 11 12 13 14 15 16 17 18 19 20 21 22 23 24 25 26 27 28 29 30 31 32 33 34 35 36 37 38 39 40 41 42 43 44 45 46 47 48 49 50
000
ASUS41 KALY 191010
RWRALY

NEW YORK STATE HOURLY WEATHER ROUNDUP
NATIONAL WEATHER SERVICE ALBANY NY
600 AM EDT FRI SEP 19 2014

NOTE: "FAIR" INDICATES FEW OR NO CLOUDS BELOW 12,000 FEET WITH NO
SIGNIFICANT WEATHER AND/OR NO OBSTRUCTIONS TO VISIBILITY.

NYZ032-033-038>043-046>054-057>066-NYZ062>081-191100-
EAST


CITY           SKY/WX    TMP DP  RH WIND       PRES   REMARKS
ALBANY         MOCLDY    42  35  76 N8        30.33R
GLENS FALLS    CLEAR     34  31  88 CALM      30.34R
POUGHKEEPSIE   PTCLDY    46  40  79 N7        30.28R
NEWBURGH       MOCLDY    48  41  76 NE7       30.28R
MONTGOMERY     PTCLDY    45  41  86 N6        30.27R
WHITE PLAINS   PTCLDY    51  45  79 NE8       30.25R
ISLIP          PTCLDY    55  47  74 NE10      30.22R
NEW YORK CITY  PTCLDY    57  50  77 NE15      30.23R
CENTRAL PARK   MOCLDY    57  48  72 E10       30.26R
$$

NYZ005>009-017-018-044>046-055-056-191100-
CENTRAL


CITY           SKY/WX    TMP DP  RH WIND       PRES   REMARKS
FULTON         CLEAR     35  32  88 NE3       30.32R
SYRACUSE       PTCLDY    38  35  89 CALM      30.32R
ROME           CLEAR     34  33  96 CALM      30.33R
ELMIRA         FOG       40  40 100 CALM      30.29R VSB 1/4
BINGHAMTON     CLEAR     38  36  92 NE5       30.27R WCI  34
MONTICELLO     MOCLDY    43  41  93 CALM      30.27R
$$

NYZ026>034-041>043-191100-
NORTH


CITY           SKY/WX    TMP DP  RH WIND       PRES   REMARKS
WATERTOWN      CLEAR     33  28  81 NE3       30.35R
FORT DRUM      NOT AVBL
MASSENA        CLEAR     30  28  92 CALM      30.38R
SARANAC LAKE   CLEAR     22  20  92 CALM      30.30R
PLATTSBURGH    CLEAR     31  30  96 CALM      30.36R
$$

NYZ001>004-010>016-019>021-191100-
WEST


CITY           SKY/WX    TMP DP  RH WIND       PRES   REMARKS
NIAGARA FALLS  PTCLDY    38  37  97 E5        30.28R WCI  34
BUFFALO        MOCLDY    42  40  92 E7        30.28S FOG
DUNKIRK        CLEAR     38  37  97 NE5       30.26R WCI  34
JAMESTOWN      CLOUDY    43  39  87 SE3       30.25R VSB<1/4
WELLSVILLE     FOG       41  40  96 CALM      30.28R VSB 1/2
ROCHESTER      PTCLDY    42  35  76 E6        30.31R
PENN YAN       CLEAR     36  34  92 CALM      30.30R
$$

             KEY
       WCI = WIND CHILL INDEX
       VSB = VISIBILITY
       HX  = HEAT INDEX
$$


USA.gov is the U.S. government's official web portal to all federal, state and local government web resources and services.